Retour au catalogue

DELTA 1 DEB

ActifHEO
NORAD 4841·DEBRIS·🇺🇸 United States

Lancé Jul 4, 1968 depuis Vandenberg Space Force Base

Loading…

Prochains Passages

TLE

Source: Space-Track
1  4841U 68055D   26226.25806580  .00000098  00000-0  19210-3 0  9996
2  4841 120.7179 332.0533 2698388 240.8322 128.6039  9.29289152140832

Suivez DELTA 1 DEB en temps réel avec AllMySat

Download on the App Store